{"data":{"norad_id":63015,"intl_designator":"2025-032L","name":"STARLINK-11541 [DTC]","alt_names":[],"object_type":"PAYLOAD","status":"ACTIVE","operator":null,"country":"US","launch_date":"2025-02-15","launch_site_code":"AFETR","launch_vehicle":null,"mission":null,"orbit_class":"UNKNOWN","rcs_meters":null,"size_class":null,"mass_kg":null,"dimensions":null,"purposes":["comms"],"wikipedia_slug":null,"has_3d_model":false,"image_url":null,"decayed_at":null,"tle_current":{"epoch":"2026-05-25T03:48:43.432128Z","epoch_age_seconds":57439,"freshness":"FRESH","line1":"1 63015U 25032L   26145.15883602  .00115193  00000+0  88706-3 0  9999","line2":"2 63015  43.0004  94.1173 0001620 261.7401  98.3283 15.70887323 74258","mean_motion":15.70887323,"eccentricity":0.000162,"inclination_deg":43.0004,"raan_deg":94.1173,"arg_perigee_deg":261.7401,"mean_anomaly_deg":98.3283,"bstar":0.00088706,"rev_number":7425,"period_min":91.667936898871,"perigee_km":355.26881849073,"apogee_km":357.45079545619,"semimajor_km":6734.4968069735,"source":"CELESTRAK","updated_at":"2026-05-25T13:38:19.837088Z"}}}